Regional Weather Roundup
Issued by NWS Kansas City/Pleasant Hill, MO

Home | Current Version | Previous Version | Graphics & Text | Print | Product List | Glossary Off
Versions: 1 2 3 4 5 6 7 8 9 10 11 12 13 14 15 16 17 18 19 20 21 22 23 24 25 26 27 28 29 30 31 32 33 34 35 36 37 38 39 40 41 42 43 44 45 46 47 48 49 50

000
ASUS43 KEAX 150410
RWREAX

WEATHER ROUNDUP FOR EASTERN KANSAS AND NORTHWEST MISSOURI
NATIONAL WEATHER SERVICE KANSAS CITY/PLEASANT HILL MO
1100 PM CDT SUN SEP 14 2014

KSZ040-057-103>105-MOZ028-029-037-043-150500-
...KANSAS CITY METROPOLITAN AREA...

CITY           SKY/WX    TMP DP  RH WIND       PRES   REMARKS
K.C. INTL      CLOUDY    66  57  72 SE15      30.07F
K.C. DOWNTOWN  CLOUDY    67  57  70 SE6       30.09F
LEES SUMMIT    CLEAR     62  56  80 SE3       30.11F
OLATHE - IXD   CLEAR     60  56  86 E5        30.10F
OLATHE - OJC   CLEAR     61  56  83 SE5       30.10S
LAWRENCE       PTCLDY    61  57  87 SE7       30.07F

$$

MOZ001>008-011>017-020>025-030>033-038>040-044>046-053-054-150500-
...NORTHERN AND CENTRAL MISSOURI...

CITY           SKY/WX    TMP DP  RH WIND       PRES   REMARKS
ST. JOSEPH     CLOUDY    66  58  75 E6        30.09S
MOSBY          CLOUDY    63  57  82 SE3       30.11S
WHITEMAN AFB   CLEAR     60  55  83 SE6       30.11F
CLINTON        CLEAR     63  57  82 CALM      30.11F
SEDALIA        CLEAR     61  53  75 SE9       30.13S
WARSAW         NOT AVBL
MARSHALL       CLOUDY    63  57  82 SE5       30.14R
CHILLICOTHE      N/A     65  56  72 SE3       30.14S
MOBERLY        CLOUDY    59  54  82 SE5       30.14F
KIRKSVILLE     CLOUDY    58  54  86 CALM      30.15S

$$

MOZ041-047>049-056>058-063>065-088>090-097-150500-
...EASTERN AND SOUTHERN MISSOURI...

CITY           SKY/WX    TMP DP  RH WIND       PRES   REMARKS
ST. LOUIS INTL PTCLDY    64  48  56 SE8       30.18F
SPIRIT OF STL  CLEAR     57  50  77 SE3       30.16F
COLUMBIA       CLEAR     59  52  77 SE8       30.14F
JEFFERSON CITY CLEAR     60  55  83 SE3       30.14F
MEXICO         PTCLDY   N/A N/A N/A S5        30.15F
HANNIBAL       PTCLDY    57  48  72 SE3       30.15F
ROLLA          CLEAR     59  49  69 SE8       30.15F
LEBANON        CLEAR     63  52  67 S7        30.16F
OSAGE BEACH    CLEAR     57  52  82 SE5       30.14F
SPRINGFIELD    MOCLDY    65  53  65 S10       30.15S
BRANSON        CLOUDY    64  55  72 S5        30.19S
NEVADA         CLEAR     61  57  88 S6        30.12
JOPLIN         MOCLDY    67  59  75 S10       30.13S
WEST PLAINS    PTCLDY    60  51  72 SE5       30.20F

$$

IAZ060-094-KSZ022-034>040-054-083-096-NEZ052-066-093-150500-
...KANSAS...SOUTHEAST NEBRASKA AND IOWA...

CITY           SKY/WX    TMP DP  RH WIND       PRES   REMARKS
TOPEKA         PTCLDY    65  59  81 SE7       30.05F
MANHATTAN      PTCLDY    68  60  75 S10       30.01F
EMPORIA        CLEAR     64  59  83 SE8       30.07S
CHANUTE        CLEAR     67  60  78 S13       30.09F
WICHITA        PTCLDY    71  60  68 S16       30.05R
OMAHA          CLOUDY    64  52  64 SE5       30.09S
LINCOLN        CLOUDY    66  54  65 SE9       30.08S
FALLS CITY     CLOUDY    64  58  80 E8        30.06S
LAMONI         CLOUDY    60  52  74 E6        30.12F
DES MOINES     CLOUDY    63  53  70 SE6       30.13S

$$



USA.gov is the U.S. government's official web portal to all federal, state and local government web resources and services.